Location: Dobrzeń Wielki
(50.7693°N, 17.8414°E)
Time: 19:33:03
(UTC+01:00)

Envisat - Pass Details

Date: 27 October 2019
Orbit: 764 x 766 km, 98.1° (Epoch: 13 November)

Event Time Altitude Azimuth Distance (km) Brightness Sun altitude
Rises 17:30:34 0° 160° (SSE) 3,222 6.1 -9.6°
Reaches altitude 10° 17:32:51 10° 159° (SSE) 2,300 5.3 -10.0°
Maximum altitude 17:37:55 79° 73° (ENE) 785 2.9 -10.8°
Drops below altitude 10° 17:43:02 10° 348° (NNW) 2,315 5.6 -11.6°
Sets 17:45:21 0° 347° (NNW) 3,246 6.3 -11.9°
